Regional Weather Roundup
Issued by NWS

Home | Current Version | Previous Version | Text Only | Print | Product List | Glossary On
Versions: 1 2 3 4 5 6 7 8 9 10 11 12 13 14 15 16 17 18 19 20 21 22 23 24 25 26 27 28 29 30 31 32 33 34 35 36 37 38 39 40 41 42 43 44 45 46 47 48 49 50
260
ASUS44 KFWD 062115
RWRTX
NORTH TEXAS HOURLY WEATHER ROUNDUP
NATIONAL WEATHER SERVICE FORT WORTH TX
400 PM CDT FRI MAY 06 2016

NOTE: "FAIR" INDICATES FEW OR NO CLOUDS BELOW 12,000 FEET WITH NO
SIGNIFICANT WEATHER AND/OR OBSTRUCTIONS TO VISIBILITY.

TXZ118-119-062200-
DALLAS/FORT WORTH METROPLEX

CITY           SKY/WX    TMP DP  RH WIND       PRES   REMARKS
DFW AIRPORT    MOSUNNY   84  49  29 E8        30.03F
DALLAS LOVE    MOSUNNY   83  48  29 VRB3      30.03F
FTW MEACHAM    SUNNY     84  50  30 SE8       30.02F
DAL-EXECUTIVE  SUNNY     81  51  35 MISG      30.04F
FTW-ALLIANCE   MOSUNNY   83  50  31 CALM      30.03F
FTW-NAS-JRB    SUNNY     83  48  29 SE8       30.03F
FTW-SPINKS     SUNNY     84  48  28 E8        30.05F
ARLINGTON      SUNNY     84  50  30 E6        30.03F
GRAND PRAIRIE  SUNNY     82  48  30 SE5       30.05F
ADDISON        SUNNY     81  48  32 SE7       30.04F
MESQUITE       SUNNY     81  48  32 SE7       30.04F
LANCASTER      SUNNY     82  43  25 E5        30.05F
$$

TXZ091>094-102>105-117-120-121-131>134-062200-
NORTH CENTRAL TEXAS

CITY           SKY/WX    TMP DP  RH WIND       PRES   REMARKS
SHRMAN/DENISON SUNNY     77  45  31 E7        30.05F
GAINESVILLE    SUNNY     79  54  41 S6        30.06F
BOWIE          SUNNY     81  48  31 SE7       30.04F
BRIDGEPORT     SUNNY     83  51  32 SE9       30.05F
DECATUR        SUNNY     81  47  30 E9G16     30.05F
DENTON         SUNNY     82  50  32 SE6       30.03F
MCKINNEY       SUNNY     80  50  34 VRB7      30.04F
GREENVILLE     SUNNY     81  45  28 E5        30.04F
TERRELL        SUNNY     81  50  33 NE6       30.04F
WAXAHACHIE     SUNNY     82  52  36 E3        30.05F
CLEBURNE       SUNNY     82  50  32 E7G14     30.05F
GRANBURY       SUNNY     84  51  32 SE6       30.05F
$$

TXZ083>090-098>101-113>116-127>130-139>142-154-155-062200-
WESTERN NORTH TEXAS

CITY           SKY/WX    TMP DP  RH WIND       PRES   REMARKS
WICHITA FALLS  SUNNY     83  50  31 SE13      30.02F
WF-KICKAPOO    SUNNY     84  50  29 SE12      30.04F
ABILENE        SUNNY     84  53  34 S17       30.03
ABILENE-DYESS  SUNNY     83  59  42 SE14G25   30.00F
BRECKENRIDGE   SUNNY     85  47  26 SE14      30.02F
GRAHAM         SUNNY     85  51  31 S6        30.02F
MINERAL WELLS  SUNNY     82  52  35 MISG      30.03F
STEPHENVILLE   SUNNY     83  48  29 SE8       30.08F
COMANCHE       SUNNY     82  51  34 SE9G17    30.05F
BROWNWOOD      SUNNY     82  46  28 SE9G18    30.03F
COLEMAN        SUNNY     85  49  28 SE10G21   30.03F
$$

TXZ143>147-156>162-174-175-062200-
CENTRAL TEXAS

CITY           SKY/WX    TMP DP  RH WIND       PRES   REMARKS
WACO           SUNNY     83  49  30 E8        30.03F
WACO-TSTC      SUNNY     84  48  28 E5        30.04F
WACO-MCGREGOR  SUNNY     84  51  31 SE8       30.04F
HILLSBORO      SUNNY     81  51  35 SE6       30.04F
CORSICANA      SUNNY     82  52  35 VRB6      30.06F
MEXIA          SUNNY     81  51  35 CALM      30.04F
HEARNE         SUNNY     83  53  35 E5        30.04F
TEMPLE         SUNNY     82  52  35 S8        30.04F
KILLEEN        SUNNY     81  50  33 VRB3      30.03F
KILLEEN-SKYLRK SUNNY     83  53  35 E7        30.04F
FORT HOOD      SUNNY     82  49  32 VRB3      30.02F
GATESVILLE     SUNNY     82  48  30 MISG      30.06F
HAMILTON       SUNNY     83  51  33 SE12G17   30.06F
LAMPASAS       SUNNY     82  54  37 SE7       30.04F
$$

TXZ095>097-106>112-122>126-135>138-148>153-164>167-062200-
EAST TEXAS

CITY           SKY/WX    TMP DP  RH WIND       PRES   REMARKS
PARIS          SUNNY     79  48  34 E6        30.06F
SULPHUR SPRNGS SUNNY     81  48  32 E5        30.07F HAZE
MOUNT PLEASANT SUNNY     79  46  30 NE3       30.07F
GILMER         SUNNY     79  46  31 E6        30.05F
MINEOLA        SUNNY     81  50  34 NE3       30.05F
TYLER          SUNNY     83  46  27 MISG      30.04F
LONGVIEW       SUNNY     80  49  33 E7        30.03F
MARSHALL       SUNNY     77  42  27 NE6       30.06F
PALESTINE      SUNNY     82  50  32 E6        30.04F
JACKSONVILLE   SUNNY     80  47  31 SE3       30.07F
HENDERSON      SUNNY     80  44  27 N3        30.05F
NACOGDOCHES    SUNNY     82  52  34 N7        30.03F
LUFKIN         SUNNY     82  50  32 VRB6      30.03F
$$

SUPPLEMENTAL OBSERVATIONS (CENTRAL)

CITY           SKY/WX    TMP DP  RH WIND       PRES   REMARKS
LAKE TEXOMA      N/A     79  48  34 E5          N/A
PAT MAYSE LAKE   N/A     77  43  29 SE2         N/A
GREENVILLE       N/A     81  46  30 SE5         N/A
CEDAR HILL       N/A     84  54  34 SE5         N/A
LAKE LIMESTONE   N/A     84  52  32 SE2         N/A
MCGREGOR         N/A     84  50  30 SE7         N/A
TEMPLE           N/A     84  46  26 E7          N/A
$$

SUPPLEMENTAL OBSERVATIONS (WEST)

CITY           SKY/WX    TMP DP  RH WIND       PRES   REMARKS
MILLERS CREEK    N/A     84  50  30 SE13        N/A
POSSUM KINGDOM   N/A     84  48  28 SE10G18     N/A
GRANBURY         N/A     84  50  30 SE8         N/A
COMANCHE         N/A     82  50  32 SE12        N/A
HAMBY            N/A     84  52  32 SE12        N/A
IVIE RESERVOIR   N/A     88  52  29 SE15G22     N/A
COLORADO BEND    N/A     84  48  28 S9          N/A
$$

SUPPLEMENTAL OBSERVATIONS (EAST)

CITY           SKY/WX    TMP DP  RH WIND       PRES   REMARKS
CLARKSVILLE      N/A     81  50  34 E1G9        N/A
TEXARKANA        N/A     81  45  28 NE3         N/A
LINDEN           N/A     82  46  28 NE2         N/A
CADDO LAKE       N/A     81  46  30 NE3         N/A
GILMER           N/A     82  46  28 E3          N/A
HENDERSON        N/A     82  46  28 VRB5        N/A
N SABINE NF      N/A     84  50  30 MISG        N/A
S SABINE NF      N/A     82  50  32 N3          N/A
$$

SUPPLEMENTAL OBSERVATIONS ARE A COLLECTION OF AUTOMATED INSTRUMENTS
THAT ARE MAINTAINED BY A VARIETY OF FEDERAL AND STATE AGENCIES.
CERTAIN ELEMENTS...SUCH AS HUMIDITY VALUES AND SUSTAINED WIND
SPEEDS...MAY BE APPROXIMATED.





USA.gov is the U.S. government's official web portal to all federal, state and local government web resources and services.